DAH2070 DAAG-EDDF

Flight info

Callsign DAH2070
Flight time N/A
Altitude 38000
Route OTARO DCT RISEP DCT LUNOR DCT ZETCO DCT LERMA DCT PIGOS DCT EKSID DCT NOSTA DCT NOPMU DCT ABESI DCT LADOL T163 EMPAX
Aircraft B736/M-SDE2E3FGHIRWXY/LB1

Departure

Time 2026-05-04 12:55
Airport Houari Boumediene Airport (DAAG)

Arrival

Time N/A
Airport Frankfurt Main Airport (EDDF)
Time Latitude Longitude Altitude Speed Heading
2026-05-04 12:41 36.69762 3.20281 69 ft 0 kts 271°
2026-05-04 12:46 36.69762 3.20301 59 ft 2 kts 270°
2026-05-04 12:47 36.69762 3.20321 63 ft 2 kts 266°
2026-05-04 12:47 36.69764 3.20341 65 ft 2 kts 245°
2026-05-04 12:47 36.69776 3.20352 65 ft 2 kts 176°
2026-05-04 12:47 36.69782 3.20352 60 ft 0 kts 172°
2026-05-04 12:50 36.69781 3.20352 60 ft 0 kts 172°
2026-05-04 12:51 36.69775 3.20353 64 ft 2 kts 171°
2026-05-04 12:51 36.69756 3.20357 59 ft 4 kts 168°
2026-05-04 12:51 36.69718 3.20367 63 ft 7 kts 171°
2026-05-04 12:51 36.69656 3.20371 69 ft 10 kts 180°
2026-05-04 12:52 36.69605 3.20429 68 ft 12 kts 91°
2026-05-04 12:52 36.69602 3.20540 69 ft 14 kts 91°
2026-05-04 12:52 36.69599 3.20670 69 ft 16 kts 91°
2026-05-04 12:52 36.69588 3.20780 64 ft 14 kts 120°
2026-05-04 12:53 36.69498 3.20835 69 ft 16 kts 161°
2026-05-04 12:53 36.69386 3.20881 69 ft 18 kts 161°
2026-05-04 12:53 36.69268 3.20931 68 ft 18 kts 161°
2026-05-04 12:53 36.69154 3.20965 66 ft 16 kts 193°
2026-05-04 12:54 36.69116 3.20846 74 ft 17 kts 272°
2026-05-04 12:54 36.69120 3.20697 74 ft 17 kts 271°
2026-05-04 12:54 36.69126 3.20478 76 ft 53 kts 272°
2026-05-04 12:54 36.69144 3.19673 71 ft 129 kts 272°
2026-05-04 12:55 36.69170 3.18361 324 ft 164 kts 274°
2026-05-04 12:55 36.69215 3.16966 1224 ft 157 kts 271°
2026-05-04 12:55 36.69277 3.15602 1989 ft 163 kts 278°
2026-05-04 12:55 36.69791 3.14239 2121 ft 202 kts 319°
2026-05-04 12:56 36.71114 3.13466 2505 ft 213 kts 348°
2026-05-04 12:56 36.72535 3.13306 3574 ft 203 kts
2026-05-04 12:56 36.73998 3.13546 4202 ft 221 kts 12°
2026-05-04 12:56 36.75439 3.14366 4604 ft 241 kts 43°
2026-05-04 12:57 36.76570 3.15958 5110 ft 248 kts 53°
2026-05-04 12:57 36.77705 3.17421 6311 ft 228 kts 34°
2026-05-04 12:57 36.79122 3.18425 6824 ft 244 kts 25°
2026-05-04 12:57 36.80714 3.19417 7040 ft 271 kts 24°
2026-05-04 12:58 36.82459 3.20490 7458 ft 285 kts 24°
2026-05-04 12:58 36.84259 3.21608 8075 ft 292 kts 24°
2026-05-04 12:58 36.86084 3.22760 8697 ft 297 kts 24°
2026-05-04 12:58 36.87937 3.23943 8731 ft 301 kts 25°
2026-05-04 12:59 36.89825 3.25161 8445 ft 306 kts 25°
2026-05-04 12:59 36.91733 3.26403 8168 ft 309 kts 25°
2026-05-04 12:59 36.93616 3.27636 7874 ft 309 kts 26°
2026-05-04 12:59 36.95452 3.29031 7527 ft 310 kts 40°
2026-05-04 13:00 36.96742 3.31167 7198 ft 308 kts 68°
2026-05-04 13:00 36.97271 3.33691 6884 ft 302 kts 84°
2026-05-04 13:00 36.97547 3.36300 6553 ft 300 kts 86°
2026-05-04 13:00 36.97789 3.38895 6213 ft 299 kts 87°
2026-05-04 13:01 36.97917 3.41485 5809 ft 297 kts 95°
2026-05-04 13:01 36.97844 3.44069 5389 ft 297 kts 96°
2026-05-04 13:01 36.97530 3.46567 5041 ft 288 kts 116°
2026-05-04 13:01 36.96549 3.48644 5007 ft 267 kts 130°
2026-05-04 13:02 36.95477 3.50478 5004 ft 260 kts 131°
2026-05-04 13:02 36.94395 3.52291 5004 ft 259 kts 132°
2026-05-04 13:02 36.93313 3.54072 4995 ft 258 kts 133°
2026-05-04 13:02 36.92151 3.55795 4742 ft 258 kts 140°
2026-05-04 13:03 36.90634 3.56874 4448 ft 248 kts 168°
2026-05-04 13:03 36.88942 3.56836 4173 ft 242 kts 195°
2026-05-04 13:03 36.87377 3.56130 3915 ft 239 kts 201°
2026-05-04 13:03 36.85846 3.55354 3649 ft 237 kts 202°
2026-05-04 13:04 36.84338 3.54580 3375 ft 235 kts 201°
2026-05-04 13:04 36.82844 3.53753 3100 ft 234 kts 208°
2026-05-04 13:04 36.81472 3.52661 2844 ft 233 kts 212°
2026-05-04 13:04 36.80129 3.51580 2610 ft 229 kts 212°
2026-05-04 13:05 36.78809 3.50523 2531 ft 220 kts 213°
2026-05-04 13:05 36.77593 3.49473 2501 ft 209 kts 214°
2026-05-04 13:05 36.76414 3.48432 2521 ft 204 kts 214°
2026-05-04 13:05 36.75268 3.47425 2515 ft 199 kts 214°
2026-05-04 13:06 36.74153 3.46452 2505 ft 193 kts 214°
2026-05-04 13:06 36.73075 3.45514 2514 ft 186 kts 214°
2026-05-04 13:06 36.72024 3.44602 2521 ft 182 kts 215°
2026-05-04 13:06 36.70977 3.43696 2520 ft 183 kts 214°
2026-05-04 13:07 36.69936 3.42794 2523 ft 184 kts 214°
2026-05-04 13:07 36.68935 3.41787 2510 ft 187 kts 233°
2026-05-04 13:07 36.68645 3.40263 2530 ft 181 kts 274°
2026-05-04 13:07 36.68723 3.38737 2519 ft 176 kts 270°
2026-05-04 13:08 36.68753 3.37243 2505 ft 167 kts 270°
2026-05-04 13:08 36.68782 3.35806 2408 ft 169 kts 271°
2026-05-04 13:08 36.68815 3.34313 2211 ft 175 kts 272°
2026-05-04 13:08 36.68848 3.32787 1971 ft 175 kts 272°
2026-05-04 13:09 36.68882 3.31284 1741 ft 173 kts 272°
2026-05-04 13:09 36.68915 3.29810 1518 ft 165 kts 271°
2026-05-04 13:09 36.68945 3.28446 1307 ft 155 kts 270°
2026-05-04 13:09 36.68975 3.27141 1127 ft 144 kts 269°
2026-05-04 13:10 36.69003 3.25957 919 ft 130 kts 270°
2026-05-04 13:10 36.69017 3.24802 697 ft 135 kts 270°
2026-05-04 13:10 36.69021 3.23646 536 ft 134 kts 273°
2026-05-04 13:10 36.69076 3.22476 369 ft 137 kts 275°
2026-05-04 13:11 36.69091 3.21305 166 ft 134 kts 277°
2026-05-04 13:11 36.69130 3.20387 76 ft 129 kts 272°
2026-05-04 13:11 36.69151 3.19423 69 ft 95 kts 272°
2026-05-04 13:11 36.69164 3.18748 77 ft 60 kts 272°
2026-05-04 13:12 36.69205 3.18431 75 ft 11 kts 338°
2026-05-04 13:12 36.69285 3.18428 71 ft 13 kts
2026-05-04 13:12 36.69340 3.18497 67 ft 13 kts 85°
2026-05-04 13:12 36.69337 3.18604 70 ft 12 kts 91°
2026-05-04 13:13 36.69335 3.18710 70 ft 12 kts 92°
2026-05-04 13:13 36.69332 3.18813 70 ft 12 kts 91°
2026-05-04 13:13 36.69330 3.18912 68 ft 11 kts 91°
2026-05-04 13:13 36.69328 3.19008 70 ft 11 kts 92°
2026-05-04 13:14 36.69326 3.19103 70 ft 11 kts 91°
2026-05-04 13:14 36.69324 3.19195 70 ft 10 kts 92°
2026-05-04 13:14 36.69322 3.19284 70 ft 10 kts 91°
2026-05-04 13:14 36.69320 3.19370 61 ft 10 kts 91°
2026-05-04 13:15 36.69318 3.19454 69 ft 10 kts 92°
2026-05-04 13:15 36.69316 3.19535 69 ft 9 kts 92°
2026-05-04 13:15 36.69314 3.19615 69 ft 9 kts 91°
2026-05-04 13:15 36.69312 3.19692 69 ft 9 kts 92°
2026-05-04 13:16 36.69310 3.19768 69 ft 9 kts 92°
2026-05-04 13:16 36.69308 3.19841 69 ft 8 kts 88°
2026-05-04 13:16 36.69324 3.19883 65 ft 8 kts 43°
2026-05-04 13:16 36.69396 3.19897 69 ft 8 kts
2026-05-04 13:17 36.69440 3.19930 66 ft 8 kts 56°
2026-05-04 13:17 36.69450 3.19954 66 ft 2 kts 66°
2026-05-04 13:17 36.69455 3.19968 66 ft 2 kts 70°
2026-05-04 13:17 36.69456 3.19982 66 ft 2 kts 89°
2026-05-04 13:18 36.69455 3.19995 69 ft 1 kts 95°
2026-05-04 13:18 36.69448 3.20005 62 ft 1 kts 143°
2026-05-04 13:18 36.69437 3.20010 61 ft 1 kts 160°
2026-05-04 13:18 36.69426 3.20008 69 ft 1 kts 184°
2026-05-04 13:19 36.69416 3.20007 69 ft 1 kts 183°
2026-05-04 13:19 36.69408 3.20007 69 ft 1 kts 182°
2026-05-04 13:19 36.69400 3.20007 69 ft 1 kts 181°
2026-05-04 13:19 36.69393 3.20007 69 ft 1 kts 180°
2026-05-04 13:20 36.69388 3.20007 69 ft 0 kts 180°